Gypsum, CO

6:47 AM MST on February 26, 2017 (GMT -0700)
Eagle County Regional

Weather History for KEGE - January, 2013

Change the Weather History Date:

Thursday, January 10, 2013

  Actual Average Record
Temperature  
Mean Temperature 12 °F -  
Max Temperature 24 °F 33 °F 56 °F (1990)
Min Temperature 0 °F 4 °F -25 °F (1952)
Degree Days  
Heating Degree Days 54    
Moisture  
Dew Point 5 °F    
Average Humidity 86    
Maximum Humidity 92    
Minimum Humidity 74    
Precipitation  
Precipitation 0.00 in - - ()
Sea Level Pressure  
Sea Level Pressure 29.89 in    
Wind  
Wind Speed 2 mph (East)    
Max Wind Speed 10 mph    
Max Gust Speed -    
Visibility 10 miles    
Events      
Averages and records for this station are not official NWS values.
T = Trace of Precipitation, MM = Missing Value Source: NWS Daily Summary

Daily Weather History Graph

Daily Weather History Graph

Search for Another Location

Airport or City:

Trip Planner

Search our weather history database for the weather conditions in past years. The results will help you decide how hot, cold, wet, or windy it might be!

Date:

Astronomy

Jan. 10, 2013 Rise Set
Actual Time 7:28 AM MST 5:02 PM MST
Civil Twilight 6:58 AM MST 5:32 PM MST
Nautical Twilight 6:24 AM MST 6:06 PM MST
Astronomical Twilight 5:52 AM MST 6:38 PM MST
Moon 6:10 AM MST (1/10) 4:13 PM MST (1/10)
Length of Visible Light 10h 34m
Length of Day
9h 34m
Waning Crescent, 2% of the Moon is Illuminated
Jan 10
Waning Crescent
Jan 11
New
Jan 18
First Quarter
Jan 26
Full
Feb 3
Last Quarter

Hourly Weather History & Observations

Time (MST) Temp. Windchill Dew Point Humidity Pressure Visibility Wind Dir Wind Speed Gust Speed Precip Events Conditions
12:15 AM 5.0 °F -4.1 °F 3.2 °F 92% 30.14 in 10.0 mi East 4.6 mph - N/A   Clear
12:35 AM 3.2 °F -6.2 °F 1.4 °F 92% 30.13 in 10.0 mi East 4.6 mph - N/A   Clear
12:55 AM 3.2 °F - 1.4 °F 92% 30.12 in 10.0 mi Calm Calm - N/A   Clear
1:15 AM 3.2 °F -6.2 °F 1.4 °F 92% 30.11 in 10.0 mi East 4.6 mph - N/A   Clear
1:35 AM 1.4 °F -6.2 °F -0.4 °F 92% 30.10 in 10.0 mi East 3.5 mph - N/A   Clear
1:55 AM 3.2 °F -4.2 °F 1.4 °F 92% 30.10 in 10.0 mi East 3.5 mph - N/A   Clear
2:15 AM 3.2 °F - 1.4 °F 92% 30.09 in 10.0 mi Calm Calm - N/A   Clear
2:35 AM 1.4 °F - -0.4 °F 92% 30.08 in 10.0 mi Calm Calm - N/A   Clear
2:55 AM 1.4 °F - -0.4 °F 92% 30.08 in 10.0 mi Calm Calm - N/A   Clear
3:15 AM -0.4 °F - -2.2 °F 92% 30.07 in 10.0 mi Calm Calm - N/A   Clear
3:35 AM 1.4 °F -8.3 °F -2.2 °F 85% 30.07 in 10.0 mi ESE 4.6 mph - N/A   Clear
3:55 AM -0.4 °F -10.4 °F -2.2 °F 92% 30.06 in 10.0 mi ESE 4.6 mph - N/A   Clear
4:15 AM -0.4 °F - -2.2 °F 92% 30.04 in 10.0 mi Calm Calm - N/A   Clear
4:35 AM -0.4 °F - -2.2 °F 92% 30.04 in 10.0 mi Calm Calm - N/A   Clear
4:55 AM -0.4 °F - -2.2 °F 92% 30.03 in 10.0 mi Calm Calm - N/A   Clear
5:35 AM -0.4 °F -8.3 °F -2.2 °F 92% 30.01 in 10.0 mi ESE 3.5 mph - N/A   Clear
5:55 AM 1.4 °F - -2.2 °F 85% 30.00 in 10.0 mi Calm Calm - N/A   Clear
6:35 AM 1.4 °F - -2.2 °F 85% 29.99 in 10.0 mi Calm Calm - N/A   Clear
6:50 AM 1.4 °F - -0.4 °F 92% 29.99 in 10.0 mi Calm Calm - N/A   Mostly Cloudy
7:50 AM -0.4 °F - -2.2 °F 92% 29.98 in 10.0 mi Calm Calm - N/A   Mostly Cloudy
8:50 AM 1.4 °F - -0.4 °F 92% 29.97 in 10.0 mi Calm Calm - N/A   Mostly Cloudy
9:50 AM 6.8 °F - 3.2 °F 85% 29.95 in 10.0 mi Calm Calm - N/A   Mostly Cloudy
10:50 AM 10.4 °F - 5.0 °F 79% 29.91 in 10.0 mi Calm Calm - N/A   Mostly Cloudy
11:50 AM 10.4 °F - 6.8 °F 85% 29.85 in 10.0 mi Calm Calm - N/A   Mostly Cloudy
12:50 PM 14.0 °F - 10.4 °F 86% 29.79 in 10.0 mi Calm Calm - N/A   Scattered Clouds
1:50 PM 17.6 °F - 12.2 °F 79% 29.74 in 10.0 mi Calm Calm - N/A   Mostly Cloudy
2:50 PM 19.4 °F 14.3 °F 12.2 °F 74% 29.71 in 10.0 mi West 3.5 mph - N/A   Mostly Cloudy
3:50 PM 21.2 °F - 14.0 °F 74% 29.68 in 10.0 mi Calm Calm - N/A   Mostly Cloudy
4:52 PM 21.2 °F - 14.0 °F 74% 29.67 in 10.0 mi Calm Calm - N/A   Mostly Cloudy
5:54 PM 19.4 °F 14.3 °F 14.0 °F 80% 29.65 in 10.0 mi NE 3.5 mph - N/A   Mostly Cloudy
6:52 PM 21.2 °F 14.9 °F 15.8 °F 80% 29.62 in 10.0 mi East 4.6 mph - N/A   Mostly Cloudy
7:53 PM 21.2 °F 12.6 °F 15.8 °F 80% 29.59 in 10.0 mi Variable 6.9 mph - N/A   Mostly Cloudy
8:51 PM 23.0 °F 12.4 °F 17.6 °F 80% 29.56 in 10.0 mi ENE 10.4 mph - N/A   Mostly Cloudy
9:54 PM 23.0 °F 14.7 °F 17.6 °F 80% 29.54 in 10.0 mi Variable 6.9 mph - N/A   Overcast
10:50 PM 23.0 °F 15.8 °F 19.4 °F 86% 29.52 in 10.0 mi East 5.8 mph - N/A   Mostly Cloudy
11:35 PM 23.0 °F 17.0 °F 19.4 °F 86% 29.49 in 10.0 mi SE 4.6 mph - N/A   Overcast
11:55 PM 24.8 °F - 19.4 °F 80% 29.47 in 10.0 mi Calm Calm - N/A   Mostly Cloudy